Date String (YYYY-MM-DD hh:mm:ss) UTC,Instrument flags,Ambient pressure (hPa),Sample flow (lpm),Bypass flow (lpm),Sample temperature (°C),Ambient temperature (°C),ASC tube jacket temperature (°C),LED temperature (°C),Box temperature (°C),Sample RH (%),Span deviation,Mass concentration (μg/m³),Mass concentration (μg/m³),Mass concentration (μg/m³)
DateTimeUTC,F1_M11,P_M11,Q1_M11,Q2_M11,T1_M11,T2_M11,T3_M11,T4_M11,T5_M11,U1_M11,ZSPAN_M11,X0_M11,X2_M11,X1_M11
2022-12-07 02:00:00,,0822.4,5.00,0.00,21.8,20.3,00.0,30.8,23.4,11.4,0000.0,0002.82,0001.55,0001.25
2022-12-07 02:01:00,,0822.4,4.99,0.00,21.7,20.2,00.0,30.8,23.4,11.4,0000.0,0002.78,0001.52,0001.22
2022-12-07 02:02:00,,0822.4,5.00,0.00,21.7,20.2,00.0,30.7,23.4,11.4,0000.0,0002.80,0001.49,0001.18
2022-12-07 02:03:00,,0822.3,5.00,0.00,21.7,20.2,00.0,30.7,23.4,11.5,0000.0,0002.75,0001.42,0001.13
2022-12-07 02:04:00,,0822.3,5.00,0.00,21.7,20.2,00.0,30.7,23.4,11.5,0000.0,0002.71,0001.36,0001.08
2022-12-07 02:05:00,,0822.3,5.01,0.00,21.7,20.2,00.0,30.7,23.4,11.5,0000.0,0002.64,0001.31,0001.05
2022-12-07 02:06:00,,0822.4,5.00,0.00,21.8,20.9,00.0,30.6,23.6,11.4,0000.0,0002.29,0001.23,0001.00
2022-12-07 02:07:00,,0822.4,5.00,0.00,21.9,21.9,00.0,30.6,23.9,11.5,0000.0,0002.30,0001.20,0000.97
2022-12-07 02:08:00,,0822.4,4.99,0.00,21.9,21.9,00.0,30.7,24.0,11.4,0000.0,0002.43,0001.17,0000.94
2022-12-07 02:09:00,,0822.4,5.00,0.00,22.0,21.5,00.0,30.8,23.9,11.3,0000.0,0002.08,0001.16,0000.91
2022-12-07 02:10:00,,0822.4,5.01,0.00,21.9,21.3,00.0,30.8,23.8,11.4,0000.0,0002.11,0001.17,0000.90
2022-12-07 02:11:00,,0822.4,5.00,0.00,21.9,21.1,00.0,30.8,23.7,11.4,0000.0,0002.32,0001.16,0000.90
2022-12-07 02:12:00,,0822.4,5.00,0.00,21.9,20.9,00.0,30.8,23.7,11.4,0000.0,0002.37,0001.17,0000.89
2022-12-07 02:13:00,,0822.4,5.00,0.00,21.9,20.7,00.0,30.8,23.7,11.4,0000.0,0002.33,0001.16,0000.88
2022-12-07 02:14:00,,0822.4,5.02,0.00,21.9,20.6,00.0,30.8,23.6,11.4,0000.0,0002.44,0001.20,0000.88
2022-12-07 02:15:00,,0822.4,5.00,0.00,21.9,20.5,00.0,30.8,23.6,11.4,0000.0,0002.42,0001.22,0000.88
2022-12-07 02:16:00,,0822.4,5.00,0.00,21.9,20.4,00.0,30.8,23.5,11.4,0000.0,0002.39,0001.19,0000.86
2022-12-07 02:17:00,,0822.4,4.99,0.00,21.8,20.3,00.0,30.8,23.5,11.4,0000.0,0002.48,0001.22,0000.87
2022-12-07 02:18:00,,0822.4,5.00,0.00,21.8,20.3,00.0,30.8,23.4,11.5,0000.0,0002.42,0001.21,0000.86
2022-12-07 02:19:00,,0822.4,5.00,0.00,21.8,20.3,00.0,30.8,23.5,11.5,0000.0,0002.24,0001.21,0000.86
2022-12-07 02:20:00,,0822.4,5.00,0.00,21.8,20.2,00.0,30.8,23.4,11.4,0000.0,0002.25,0001.21,0000.85
2022-12-07 02:21:00,,0822.4,5.00,0.00,21.7,20.2,00.0,30.7,23.4,11.4,0000.0,0002.20,0001.19,0000.85
2022-12-07 02:22:00,,0822.3,5.00,0.00,21.7,20.2,00.0,30.7,23.4,11.5,0000.0,0002.16,0001.21,0000.84
2022-12-07 02:23:00,,0822.4,5.00,0.00,21.7,20.4,00.0,30.7,23.5,11.4,0000.0,0002.09,0001.17,0000.81
2022-12-07 02:24:00,,0822.4,5.01,0.00,21.8,21.3,00.0,30.6,23.7,11.4,0000.0,0002.05,0001.14,0000.79
2022-12-07 02:25:00,,0822.5,4.99,0.00,21.9,22.0,00.0,30.6,23.9,11.3,0000.0,0001.96,0001.11,0000.78
2022-12-07 02:26:00,,0822.4,4.99,0.00,22.0,21.7,00.0,30.7,24.0,11.4,0000.0,0002.01,0001.13,0000.78
2022-12-07 02:27:00,,0822.4,5.00,0.00,22.0,21.4,00.0,30.8,23.9,11.4,0000.0,0002.00,0001.13,0000.79
2022-12-07 02:28:00,,0822.4,5.00,0.00,22.0,21.2,00.0,30.8,23.8,11.4,0000.0,0001.86,0001.11,0000.79
2022-12-07 02:29:00,,0822.4,5.00,0.00,21.9,21.0,00.0,30.8,23.7,11.4,0000.0,0001.85,0001.11,0000.81
2022-12-07 02:30:00,,0822.4,5.00,0.00,21.9,20.8,00.0,30.8,23.7,11.4,0000.0,0002.03,0001.20,0000.86
2022-12-07 02:31:00,,0822.4,5.00,0.00,21.9,20.7,00.0,30.8,23.6,11.4,0000.0,0002.07,0001.24,0000.91
2022-12-07 02:32:00,,0822.4,5.01,0.00,21.9,20.6,00.0,30.8,23.6,11.5,0000.0,0002.17,0001.31,0000.96
2022-12-07 02:33:00,,0822.4,5.00,0.00,21.9,20.5,00.0,30.8,23.6,11.4,0000.0,0002.09,0001.33,0001.01
2022-12-07 02:34:00,,0822.4,5.00,0.00,21.9,20.4,00.0,30.8,23.5,11.4,0000.0,0002.11,0001.40,0001.08
2022-12-07 02:35:00,,0822.4,5.00,0.00,21.8,20.3,00.0,30.8,23.5,11.5,0000.0,0002.15,0001.45,0001.14
2022-12-07 02:36:00,,0822.4,5.00,0.00,21.8,20.3,00.0,30.8,23.5,11.4,0000.0,0002.23,0001.51,0001.20
2022-12-07 02:37:00,,0822.4,5.00,0.00,21.8,20.2,00.0,30.8,23.4,11.5,0000.0,0002.29,0001.57,0001.26
2022-12-07 02:38:00,,0822.4,5.00,0.00,21.7,20.2,00.0,30.8,23.4,11.4,0000.0,0002.43,0001.63,0001.30
2022-12-07 02:39:00,,0822.4,5.00,0.00,21.7,20.1,00.0,30.8,23.3,11.4,0000.0,0002.47,0001.66,0001.33
2022-12-07 02:40:00,,0822.4,5.00,0.00,21.7,20.3,00.0,30.7,23.4,11.5,0000.0,0002.56,0001.71,0001.35
2022-12-07 02:41:00,,0822.4,5.00,0.00,21.8,21.2,00.0,30.7,23.7,11.4,0000.0,0002.48,0001.69,0001.35
2022-12-07 02:42:00,,0822.4,5.00,0.00,21.9,22.0,00.0,30.7,24.0,11.4,0000.0,0002.42,0001.66,0001.35
2022-12-07 02:43:00,,0822.4,4.98,0.00,22.0,21.8,00.0,30.7,24.0,11.4,0000.0,0002.44,0001.66,0001.35
2022-12-07 02:44:00,,0822.5,5.00,0.00,22.0,21.4,00.0,30.8,23.9,11.4,0000.0,0002.41,0001.66,0001.36
2022-12-07 02:45:00,,0822.4,5.01,0.00,22.0,21.2,00.0,30.8,23.8,11.4,0000.0,0002.42,0001.69,0001.38
2022-12-07 02:46:00,,0822.4,5.01,0.00,22.0,20.9,00.0,30.8,23.8,11.4,0000.0,0002.46,0001.70,0001.39
2022-12-07 02:47:00,,0822.4,5.00,0.00,21.9,20.8,00.0,30.8,23.7,11.4,0000.0,0002.46,0001.69,0001.38
2022-12-07 02:48:00,,0822.4,4.99,0.00,21.9,20.6,00.0,30.8,23.6,11.3,0000.0,0002.42,0001.66,0001.36
2022-12-07 02:49:00,,0822.4,5.00,0.00,21.9,20.5,00.0,30.8,23.5,11.2,0000.0,0002.37,0001.65,0001.34
2022-12-07 02:50:00,,0822.4,4.99,0.00,21.9,20.4,00.0,30.8,23.5,11.3,0000.0,0002.38,0001.66,0001.34
2022-12-07 02:51:00,,0822.4,5.01,0.00,21.8,20.3,00.0,30.8,23.5,11.3,0000.0,0002.58,0001.67,0001.32
2022-12-07 02:52:00,,0822.4,5.01,0.00,21.8,20.2,00.0,30.8,23.4,11.2,0000.0,0002.47,0001.61,0001.29
2022-12-07 02:53:00,,0822.3,5.01,0.00,21.8,20.1,00.0,30.8,23.3,11.2,0000.0,0002.53,0001.61,0001.26
2022-12-07 02:54:00,,0822.4,5.00,0.00,21.7,20.1,00.0,30.8,23.3,11.3,0000.0,0002.54,0001.60,0001.22
2022-12-07 02:55:00,,0822.3,5.00,0.00,21.7,20.3,00.0,30.7,23.4,11.3,0000.0,0002.47,0001.55,0001.18
2022-12-07 02:56:00,,0822.3,5.00,0.00,21.8,21.4,00.0,30.7,23.7,11.1,0000.0,0002.39,0001.47,0001.12
2022-12-07 02:57:00,,0822.3,4.98,0.00,21.9,22.1,00.0,30.7,23.9,11.0,0000.0,0002.41,0001.45,0001.07
2022-12-07 02:58:00,,0822.3,5.00,0.00,22.0,21.8,00.0,30.8,23.9,11.0,0000.0,0002.34,0001.42,0001.03
2022-12-07 02:59:00,,0822.3,4.99,0.00,22.0,21.4,00.0,30.8,23.9,11.1,0000.0,0002.20,0001.35,0000.99
